Terug naar catalogus

SL-16 DEB

ActiefLEO
NORAD 39302·DEBRIS·🇷🇺 Russia

Gelanceerd Dec 25, 1992 vanaf Baikonur Cosmodrome

Loading…

Volgende Passages (komende 24 uur)

TLE

VerouderendSource: Space-Track

Epoch: Sep 11, 2026, 12:30 UTC

1 39302U 92093JT  26254.52135863  .00003007  00000-0  10480-2 0  9997
2 39302  70.9815 163.2217 0109168 176.1340 359.2465 14.32838301670648

Volg SL-16 DEB in realtime met AllMySat

Download on the App Store